TimeEST,TemperatureF,Dew PointF,Humidity,Sea Level PressureIn,VisibilityMPH,Wind Direction,Wind SpeedMPH,Gust SpeedMPH,PrecipitationIn,Events,Conditions,WindDirDegrees,DateUTC
12:00 AM,62.1,61.0,96,30.00,4.0,SE,5.8,-,N/A,,Overcast,140,2014-01-27 05:00:00
12:53 AM,62.1,61.0,96,29.99,5.0,SSE,3.5,-,N/A,,Overcast,150,2014-01-27 05:53:00
1:53 AM,62.1,61.0,96,29.98,6.0,SSE,5.8,-,N/A,,Overcast,160,2014-01-27 06:53:00
2:53 AM,62.1,60.1,93,29.96,10.0,SSE,5.8,-,0.07,,Overcast,150,2014-01-27 07:53:00
3:04 AM,62.1,60.1,93,29.97,9.0,Calm,Calm,-,N/A,,Overcast,0,2014-01-27 08:04:00
3:53 AM,62.1,61.0,96,29.98,10.0,Calm,Calm,-,N/A,,Overcast,0,2014-01-27 08:53:00
4:12 AM,61.0,60.1,97,29.97,7.0,East,3.5,-,0.01,Rain,Light Rain,90,2014-01-27 09:12:00
4:25 AM,61.0,60.1,97,29.98,1.8,NW,3.5,-,0.15,Rain,Heavy Rain,320,2014-01-27 09:25:00
4:53 AM,61.0,61.0,100,29.97,1.2,Calm,Calm,-,0.61,Rain,Rain,0,2014-01-27 09:53:00
4:57 AM,61.0,61.0,100,29.97,2.5,Variable,5.8,-,0.00,Rain,Light Rain,0,2014-01-27 09:57:00
5:04 AM,63.0,61.0,93,29.97,8.0,SW,6.9,-,0.00,Rain,Light Rain,220,2014-01-27 10:04:00
5:11 AM,63.0,62.1,97,29.96,10.0,South,8.1,-,0.00,,Overcast,180,2014-01-27 10:11:00
5:53 AM,63.0,62.1,97,29.97,9.0,SSW,5.8,-,0.00,,Overcast,210,2014-01-27 10:53:00
6:53 AM,63.0,62.1,97,29.99,7.0,South,4.6,-,N/A,,Overcast,180,2014-01-27 11:53:00
7:53 AM,64.0,63.0,96,30.00,4.0,SSW,6.9,-,N/A,,Overcast,200,2014-01-27 12:53:00
8:09 AM,64.0,64.0,100,30.00,5.0,SSW,5.8,-,N/A,,Scattered Clouds,200,2014-01-27 13:09:00
8:53 AM,66.0,64.9,96,30.02,9.0,SSW,4.6,-,N/A,,Partly Cloudy,210,2014-01-27 13:53:00
9:53 AM,69.1,64.9,87,30.01,10.0,South,8.1,-,N/A,,Mostly Cloudy,190,2014-01-27 14:53:00
10:53 AM,71.1,64.0,78,30.04,10.0,WSW,5.8,-,N/A,,Overcast,240,2014-01-27 15:53:00
11:53 AM,72.0,63.0,73,30.03,10.0,West,8.1,-,N/A,,Overcast,260,2014-01-27 16:53:00
12:25 PM,71.1,63.0,75,30.02,10.0,WSW,10.4,-,N/A,,Overcast,240,2014-01-27 17:25:00
12:53 PM,70.0,63.0,78,30.01,10.0,West,9.2,-,N/A,,Overcast,270,2014-01-27 17:53:00
1:53 PM,70.0,63.0,78,29.98,10.0,WSW,9.2,-,N/A,,Overcast,250,2014-01-27 18:53:00
2:53 PM,70.0,64.0,81,29.97,10.0,SW,5.8,-,N/A,,Overcast,220,2014-01-27 19:53:00
3:53 PM,69.1,61.0,75,29.96,10.0,WSW,4.6,-,0.00,,Overcast,240,2014-01-27 20:53:00
4:53 PM,69.1,61.0,75,29.97,10.0,South,6.9,-,N/A,,Overcast,190,2014-01-27 21:53:00
5:53 PM,66.9,59.0,76,29.96,10.0,SW,5.8,-,N/A,,Clear,230,2014-01-27 22:53:00
6:53 PM,63.0,59.0,87,29.99,10.0,SSW,4.6,-,N/A,,Scattered Clouds,200,2014-01-27 23:53:00
7:53 PM,64.0,60.1,87,30.00,10.0,South,5.8,-,N/A,,Overcast,180,2014-01-28 00:53:00
8:53 PM,62.1,60.1,93,30.01,10.0,South,4.6,-,N/A,,Scattered Clouds,190,2014-01-28 01:53:00
9:53 PM,61.0,60.1,97,30.03,10.0,SW,4.6,-,N/A,,Mostly Cloudy,220,2014-01-28 02:53:00
10:53 PM,62.1,60.1,93,30.04,10.0,WSW,3.5,-,N/A,,Mostly Cloudy,240,2014-01-28 03:53:00
11:19 PM,60.1,60.1,100,30.04,2.5,WSW,4.6,-,N/A,,Scattered Clouds,240,2014-01-28 04:19:00
11:24 PM,60.1,60.1,100,30.04,0.8,SW,3.5,-,N/A,,Mostly Cloudy,230,2014-01-28 04:24:00
11:32 PM,60.1,59.0,96,30.04,0.2,Calm,Calm,-,N/A,Fog,Fog,0,2014-01-28 04:32:00
11:51 PM,60.8,59.0,94,30.03,0.2,Calm,Calm,-,N/A,Fog,Fog,0,2014-01-28 04:51:00
11:53 PM,60.1,59.0,96,30.03,0.2,Calm,Calm,-,N/A,Fog,Fog,0,2014-01-28 04:53:00